When you browse on this site, cookies collect data to enhance your experience and personalize the content and advertising you see.
Visit our Privacy Policy to learn more. By continuing to use the site, you agree to this use of cookies and data.
  • In Hungary
  • List of Countries
  • For 7 days
  • Water Temperature
  • Satellite Maps
  • Weather Map
  • News
  • Weather Widgets
  • user-avatar
    Login

    Hourly Weather Singapore

    Today, 15 December, Saturday

    Time Temperature Precipitation Wind Pressure Humidity
    00:00 +27°C° 0.2 mm 2 mps 757 mmHg 91%
    01:00 +27°C° 0 mm 2 mps 758 mmHg 93%
    02:00 +27°C° 0.9 mm 2 mps 757 mmHg 93%
    03:00 +27°C° 0.9 mm 2 mps 757 mmHg 93%
    04:00 +27°C° 0.9 mm 2 mps 757 mmHg 93%
    05:00 +27°C° 0.7 mm 1 mps 757 mmHg 93%
    06:00 +27°C° 0.7 mm 1 mps 757 mmHg 92%
    07:00 +27°C° 0 mm 2 mps 757 mmHg 92%
    08:00 +27°C° 0.1 mm 1 mps 758 mmHg 89%
    09:00 +28°C° 0.1 mm 1 mps 758 mmHg 86%
    10:00 +28°C° 0.1 mm 1 mps 758 mmHg 84%
    11:00 +30°C° 0 mm 1 mps 757 mmHg 78%
    12:00 +31°C° 0 mm 1 mps 757 mmHg 73%
    13:00 +32°C° 0 mm 1 mps 757 mmHg 67%
    14:00 +32°C° 0.1 mm 1 mps 756 mmHg 69%
    15:00 +31°C° 0.1 mm 1 mps 756 mmHg 71%
    16:00 +31°C° 0.1 mm 1 mps 755 mmHg 72%
    17:00 +30°C° 0.1 mm 1 mps 756 mmHg 76%
    18:00 +29°C° 0.1 mm 1 mps 756 mmHg 79%
    19:00 +29°C° 0.1 mm 1 mps 756 mmHg 82%
    20:00 +28°C° 0 mm 1 mps 757 mmHg 84%
    21:00 +28°C° 0 mm 1 mps 757 mmHg 85%
    22:00 +28°C° 0 mm 1 mps 758 mmHg 87%
    23:00 +28°C° 0.1 mm 1 mps 758 mmHg 88%

    Tomorrow, 16 December, Sunday

    Time Temperature Precipitation Wind Pressure Humidity
    00:00 +28°C° 0.1 mm 1 mps 757 mmHg 88%
    01:00 +28°C° 0.1 mm 1 mps 757 mmHg 89%
    02:00 +28°C° 0.4 mm 1 mps 757 mmHg 89%
    03:00 +27°C° 0.4 mm 1 mps 757 mmHg 90%
    04:00 +27°C° 0.4 mm 2 mps 756 mmHg 90%
    05:00 +27°C° 0.5 mm 2 mps 757 mmHg 89%
    06:00 +28°C° 0.5 mm 2 mps 757 mmHg 88%
    07:00 +28°C° 0.5 mm 2 mps 758 mmHg 87%
    08:00 +29°C° 0.8 mm 1 mps 758 mmHg 79%
    09:00 +31°C° 0.8 mm 1 mps 758 mmHg 71%
    10:00 +33°C° 0.8 mm 1 mps 758 mmHg 64%
    11:00 +33°C° 0.7 mm 1 mps 758 mmHg 63%
    12:00 +34°C° 0.7 mm 1 mps 757 mmHg 62%
    13:00 +34°C° 0.7 mm 1 mps 757 mmHg 62%
    14:00 +33°C° 1.1 mm 1 mps 756 mmHg 65%
    15:00 +32°C° 1.1 mm 1 mps 756 mmHg 68%
    16:00 +32°C° 1.1 mm 1 mps 755 mmHg 72%
    17:00 +31°C° 0.8 mm 1 mps 756 mmHg 75%
    18:00 +30°C° 0.8 mm 1 mps 756 mmHg 78%
    19:00 +29°C° 0.8 mm 2 mps 757 mmHg 81%
    20:00 +29°C° 0 mm 2 mps 757 mmHg 82%
    21:00 +28°C° 0 mm 1 mps 757 mmHg 83%
    22:00 +28°C° 0 mm 1 mps 758 mmHg 84%
    23:00 +28°C° 0 mm 1 mps 758 mmHg 84%

    Day after tomorrow, 17 December, Monday

    Time Temperature Precipitation Wind Pressure Humidity
    00:00 +28°C° 0 mm 1 mps 757 mmHg 85%
    01:00 +28°C° 0 mm 1 mps 757 mmHg 86%
    02:00 +28°C° 1 mm 1 mps 757 mmHg 86%
    03:00 +27°C° 1 mm 1 mps 757 mmHg 87%
    04:00 +27°C° 1 mm 1 mps 756 mmHg 87%
    05:00 +28°C° 0.1 mm 1 mps 757 mmHg 87%
    06:00 +28°C° 0.1 mm 1 mps 757 mmHg 86%
    07:00 +28°C° 0.1 mm 1 mps 758 mmHg 85%
    08:00 +30°C° 0 mm 1 mps 758 mmHg 78%
    09:00 +31°C° 0 mm 1 mps 758 mmHg 71%
    10:00 +34°C° 0 mm 2 mps 759 mmHg 64%
    11:00 +33°C° 0.4 mm 1 mps 758 mmHg 62%
    12:00 +34°C° 0.4 mm 1 mps 758 mmHg 61%
    13:00 +35°C° 0.4 mm 1 mps 757 mmHg 59%
    14:00 +33°C° 2.4 mm 1 mps 757 mmHg 65%
    15:00 +32°C° 2.4 mm 1 mps 756 mmHg 71%
    16:00 +31°C° 2.4 mm 2 mps 756 mmHg 77%
    17:00 +30°C° 2 mm 2 mps 756 mmHg 80%
    18:00 +29°C° 2 mm 2 mps 757 mmHg 82%
    19:00 +28°C° 2 mm 2 mps 757 mmHg 85%
    20:00 +28°C° 0.2 mm 2 mps 758 mmHg 85%
    21:00 +28°C° 0.2 mm 2 mps 758 mmHg 85%
    22:00 +28°C° 0.2 mm 2 mps 759 mmHg 85%
    23:00 +28°C° 0.4 mm 2 mps 758 mmHg 85%

    18 December, Tuesday

    Time Temperature Precipitation Wind Pressure Humidity
    00:00 +28°C° 0.4 mm 2 mps 758 mmHg 85%
    01:00 +28°C° 0.4 mm 2 mps 757 mmHg 86%
    02:00 +28°C° 0.2 mm 2 mps 757 mmHg 86%
    03:00 +28°C° 0.2 mm 2 mps 757 mmHg 87%
    04:00 +27°C° 0.2 mm 2 mps 756 mmHg 87%
    05:00 +28°C° 0.3 mm 2 mps 757 mmHg 87%
    06:00 +28°C° 0.3 mm 2 mps 757 mmHg 86%
    07:00 +28°C° 0.3 mm 2 mps 758 mmHg 86%
    08:00 +30°C° 0.1 mm 2 mps 758 mmHg 79%
    09:00 +31°C° 0.1 mm 2 mps 758 mmHg 72%
    10:00 +34°C° 0.1 mm 2 mps 759 mmHg 66%
    11:00 +34°C° 1.5 mm 2 mps 758 mmHg 67%
    12:00 +34°C° 1.5 mm 2 mps 757 mmHg 68%
    13:00 +34°C° 1.5 mm 2 mps 757 mmHg 69%
    14:00 +32°C° 0.6 mm 2 mps 756 mmHg 70%
    15:00 +32°C° 0.6 mm 2 mps 756 mmHg 70%
    16:00 +32°C° 0.6 mm 2 mps 755 mmHg 71%
    17:00 +31°C° 0 mm 2 mps 756 mmHg 75%
    18:00 +30°C° 0 mm 2 mps 756 mmHg 79%
    19:00 +29°C° 0 mm 2 mps 757 mmHg 82%
    20:00 +29°C° 0 mm 3 mps 758 mmHg 83%
    21:00 +29°C° 0 mm 3 mps 758 mmHg 84%
    22:00 +28°C° 0 mm 3 mps 759 mmHg 85%
    23:00 +28°C° 0.5 mm 3 mps 758 mmHg 86%

    19 December, Wednesday

    Time Temperature Precipitation Wind Pressure Humidity
    00:00 +28°C° 0.5 mm 3 mps 758 mmHg 87%
    01:00 +28°C° 0.5 mm 3 mps 757 mmHg 88%
    02:00 +28°C° 0 mm 3 mps 757 mmHg 88%
    03:00 +28°C° 0 mm 3 mps 757 mmHg 89%
    04:00 +28°C° 0 mm 3 mps 756 mmHg 89%
    05:00 +28°C° 0.7 mm 3 mps 757 mmHg 89%
    06:00 +28°C° 0.7 mm 3 mps 757 mmHg 89%
    07:00 +28°C° 0.7 mm 3 mps 758 mmHg 88%
    08:00 +29°C° 1.6 mm 3 mps 758 mmHg 85%
    09:00 +30°C° 1.6 mm 3 mps 758 mmHg 82%
    10:00 +31°C° 1.6 mm 3 mps 759 mmHg 78%
    11:00 +31°C° 1.8 mm 3 mps 758 mmHg 77%
    12:00 +31°C° 1.8 mm 2 mps 758 mmHg 76%
    13:00 +31°C° 1.8 mm 2 mps 757 mmHg 75%
    14:00 +31°C° 1.8 mm 2 mps 756 mmHg 75%
    15:00 +31°C° 1.8 mm 2 mps 756 mmHg 75%
    16:00 +31°C° 1.8 mm 2 mps 756 mmHg 75%
    17:00 +30°C° 0.1 mm 2 mps 756 mmHg 77%
    18:00 +29°C° 0.1 mm 2 mps 756 mmHg 80%
    19:00 +29°C° 0.1 mm 2 mps 757 mmHg 82%
    20:00 +28°C° 0 mm 3 mps 757 mmHg 83%
    21:00 +28°C° 0 mm 3 mps 758 mmHg 84%
    22:00 +28°C° 0 mm 3 mps 758 mmHg 85%
    23:00 +28°C° 0 mm 3 mps 758 mmHg 85%

    20 December, Thursday

    Time Temperature Precipitation Wind Pressure Humidity
    00:00 +28°C° 0 mm 3 mps 757 mmHg 85%
    01:00 +28°C° 0 mm 3 mps 757 mmHg 85%
    02:00 +28°C° 0 mm 3 mps 757 mmHg 86%
    03:00 +28°C° 0 mm 3 mps 757 mmHg 86%
    04:00 +27°C° 0 mm 3 mps 756 mmHg 87%
    05:00 +28°C° 0 mm 3 mps 757 mmHg 87%
    06:00 +28°C° 0 mm 3 mps 757 mmHg 87%
    07:00 +28°C° 0 mm 3 mps 758 mmHg 87%
    08:00 +29°C° 0 mm 3 mps 758 mmHg 82%
    09:00 +31°C° 0 mm 3 mps 758 mmHg 77%
    10:00 +33°C° 0 mm 3 mps 759 mmHg 72%
    11:00 +34°C° 0.4 mm 3 mps 758 mmHg 69%
    12:00 +34°C° 0.4 mm 3 mps 757 mmHg 66%
    13:00 +35°C° 0.4 mm 3 mps 756 mmHg 63%
    14:00 +34°C° 0.4 mm 3 mps 756 mmHg 66%
    15:00 +34°C° 0.4 mm 2 mps 755 mmHg 68%
    16:00 +32°C° 0.4 mm 2 mps 755 mmHg 70%
    17:00 +31°C° 0.4 mm 2 mps 755 mmHg 75%
    18:00 +30°C° 0.4 mm 2 mps 756 mmHg 80%
    19:00 +29°C° 0.4 mm 2 mps 756 mmHg 84%
    20:00 +29°C° 0.2 mm 2 mps 757 mmHg 85%
    21:00 +29°C° 0.2 mm 3 mps 757 mmHg 86%
    22:00 +28°C° 0.2 mm 3 mps 757 mmHg 86%
    23:00 +28°C° 0.1 mm 3 mps 757 mmHg 86%
    Show more